Vertical_Velocity
0 1 1 -1 -1 -2 22 2 -4 67 -10 -14 -6 -2 -5 -0 -2 -1 -9 1 -3 0 3 -3 4 2 3 -0 -0 1 1 0 0 -1 -0 -2 -0 -1 0 -1 0 -4 -1 0 -6 1 1 -1 -3
1 4 -1 3 -3 10 55 -5 -0 -11 199 4 -8 -1 -3 -2 -0 -1 -1 -9 -2 -6 2 1 2 1 5 2 -1 1 -1 1 -1 -0 -0 -2 -1 1 -2 -1 2 -4 0 1 -3 -4 -0 -1 -1
2 2 -0 2 -5 -7 40 2 -11 15 7 2 -2 -0 2 -5 2 -1 -2 -2 -7 -2 -7 1 -1 2 4 2 0 2 1 1 1 0 -0 -3 -2 1 -2 -1 0 1 -3 -1 0 -5 -1 1 -1
-0 2 1 -3 -4 27 21 10 -9 -20 3 -6 -1 -1 3 2 -0 -2 -1 0 -6 -7 -5 -1 1 -1 2 1 2 2 3 0 1 1 -1 -0 -2 0 0 -1 1 0 -3 -2 1 -2 -2 0 2
1 3 -4 -0 -17 5 -4 -23 5 -4 -9 -4 -3 2 0 2 -3 -0 1 3 -1 4 -7 -1 5 0 -0 1 2 2 1 1 1 0 0 -1 -1 -1 -1 -0 -0 1 -1 -0 1 -3 -2 -1 1
0 1 -4 -1 -5 -4 -12 -3 0 -0 -3 -2 2 -1 -0 -2 1 0 -1 1 2 -0 -1 -1 -2 6 3 -1 0 4 1 1 -2 3 1 1 -2 -2 -1 1 -0 1 -2 -1 2 -0 -1 -2 -1
-0 2 -6 -1 50 -3 -18 3 -3 -0 -2 2 -5 4 4 -0 -1 3 2 4 3 -1 -1 2 6 -4 2 2 3 1 1 -0 -0 2 0 1 1 -1 0 -1 0 1 -1 -1 -0 1 -1 -0 -2
3 -6 -2 -9 16 20 -10 3 0 2 5 -3 2 -1 -12 -1 -5 -0 1 1 2 2 0 -1 -2 6 -5 -3 3 2 0 2 -1 0 2 1 2 -0 -0 0 1 0 0 -2 -1 1 -0 -2 0
2 -1 -2 -4 -1 -0 -4 3 2 -0 3 3 -1 -5 2 -3 -3 -2 -3 -1 -2 -1 0 -2 -3 -8 -2 -2 2 1 -0 0 -1 -1 0 0 1 -0 -1 -1 -1 0 3 -2 -1 1 1 -2 -1
0 5 10 -2 -13 -12 6 -2 4 8 -5 1 -1 -3 -2 3 1 -5 -2 -3 -1 -1 1 1 3 -0 -5 -3 -3 1 2 -1 -2 0 -1 1 -0 0 0 -1 -1 2 2 -1 -2 -2 1 0 -3
-0 11 -16 -8 3 1 1 -1 2 5 -18 9 -1 -11 5 1 -1 3 7 -3 1 -3 -1 0 3 1 2 0 -4 -1 -2 -2 -1 -1 -1 0 1 -2 1 -0 -1 0 -0 1 -3 -2 2 -2 -0
1 2 4 2 2 1 -1 -8 4 -0 1 -1 2 -2 2 -3 -2 5 -2 -3 -2 -2 0 -2 -1 1 -1 -1 -1 -4 -5 1 -1 0 -2 -0 -0 -1 -1 2 -0 -0 -1 0 -0 -2 0 0 -2
1 3 2 0 -1 1 2 -5 12 -0 -1 0 1 3 -4 6 1 -3 5 20 4 -0 -3 -3 -1 -2 0 -4 1 -2 -1 -7 2 3 -2 -1 -0 0 -2 -0 0 -0 -1 2 -3 1 -2 -1 1
9 -0 4 2 1 2 1 -2 2 3 -1 2 1 0 -2 -2 1 -3 -0 21 20 2 2 1 1 4 1 -2 -1 0 -0 0 -2 -2 -1 -1 0 0 0 -2 -2 3 1 1 -2 1 -1 -2 -1
2 -1 2 2 2 -5 -2 2 -9 1 -0 0 1 2 0 1 -4 -2 -4 6 -3 2 -3 4 6 -3 -4 -3 -0 -1 1 -1 -1 -3 -1 -1 -2 3 -0 1 -2 -2 -0 -0 1 2 0 -0 -0
1 1 3 -6 5 -13 2 -9 14 -2 -4 0 -1 -1 2 6 -3 -4 10 -2 -4 -3 -5 14 82 -6 -0 -1 4 2 3 3 -0 -2 -2 -2 -0 -2 2 -4 -1 0 -3 -0 0 2 1 1 1
1 6 2 -17 9 -5 6 -21 7 4 -3 2 0 -2 -1 3 -2 -1 6 -1 7 7 1 -7 -6 15 12 -6 -4 -2 3 -2 2 0 -1 -2 -0 -1 -3 -1 -1 -0 0 -0 1 1 -0 0 0
-2 1 -2 5 -21 7 -1 -16 10 2 1 -0 -1 2 -4 1 -1 0 8 1 0 2 0 -8 0 0 95 8 -3 -0 3 10 1 -1 -1 -4 -1 -1 -1 -1 0 0 0 0 2 2 2 -0 1
1 5 -1 -16 -10 7 -5 2 -8 11 3 -1 -1 0 1 -4 1 -1 3 3 1 5 -1 1 -3 5 5 7 3 18 -5 -4 4 -4 -3 0 1 -1 -2 3 1 -1 -1 1 1 1 3 1 -1
4 1 2 -14 -1 9 -5 2 -17 8 -0 4 2 0 1 -4 -3 -1 -1 1 -2 1 2 0 -1 -5 -4 3 8 -0 10 20 2 31 9 0 2 1 3 0 -3 -2 0 2 2 -1 -2 2 -1
-3 3 -10 14 -13 9 -1 -1 3 -5 3 2 -1 0 2 -0 -2 -1 -2 0 -1 1 -2 1 0 -1 2 5 7 1 -8 -3 7 1 -1 30 2 -1 -3 -1 -1 -1 -2 -1 1 3 -0 -1 -1
5 18 -1 0 -2 22 -29 -2 -5 -35 19 -1 -1 -1 1 2 2 2 -2 -2 -1 -2 2 -2 0 3 0 1 -0 4 -2 -5 0 -5 -3 26 -2 -0 2 -3 -2 -2 -3 -2 -1 1 0 2 1
-15 -1 0 0 -0 1 -6 -10 15 -10 5 -24 3 7 -2 0 1 2 3 1 -5 -1 -2 -0 0 -2 -1 4 0 -2 5 4 -1 -1 -2 1 -1 4 1 3 0 0 -1 0 -2 -1 -2 -2 -2
-2 -2 -2 -2 1 -13 13 -1 16 18 -16 -6 14 3 1 -2 -1 0 -1 1 -2 -2 -2 -2 -2 1 2 1 -2 -5 -1 11 -9 -3 -0 -1 3 0 4 -6 2 -3 -0 -2 -2 -1 1 -1 -2
-3 -2 0 -11 -8 -6 -17 -0 12 -0 -7 -7 -1 1 -0 -1 -3 0 -2 -1 0 1 -2 -3 -1 -4 1 -1 -0 -4 2 26 20 3 -2 -2 5 3 -1 2 11 1 -1 1 -2 -0 -0 -1 -0
-2 -1 -2 -4 -2 9 -23 -2 -4 0 2 -1 -4 1 -2 -1 -1 1 -3 1 -1 -1 0 1 -2 1 -1 1 -0 -4 4 14 21 -5 7 0 -2 1 1 1 -0 12 16 -3 -2 1 -1 1 5
-2 -2 0 -5 1 -5 11 -9 -4 -3 3 -6 -4 -4 -3 -5 -3 -2 -3 -4 -3 -2 -4 3 -3 -2 -3 -1 2 1 -3 1 -8 -6 -2 3 -0 -0 -0 -2 -1 3 -2 13 8 -0 -1 1 3
-3 -1 -4 -2 -4 -1 3 31 12 -3 5 -2 1 -4 -7 -4 -2 -6 -5 -2 -2 -4 -2 -2 1 -2 -1 -3 -1 0 5 7 0 8 -2 1 0 4 3 -1 1 -2 2 7 7 3 5 -2 0
-3 -3 -1 1 -1 -5 -3 5 1 -4 -8 -7 -7 -3 -9 -6 -12 -6 -4 -6 -6 -6 -4 -3 -2 0 -2 1 -1 2 3 5 5 -0 2 5 7 6 1 27 17 -12 17 11 12 12 15 9 6
-3 -3 -1 -1 0 -1 1 6 2 -6 -0 -1 -5 -6 -4 -0 -4 -7 -5 -1 -5 -5 -8 -4 -2 -6 -6 -0 0 2 4 3 4 3 2 3 1 15 48 10 9 14 14 21 0 3 17 12 13
Height
5848 5851 5853 5855 5860 5862 5867 5861 5858 5843 5855 5852 5856 5860 5860 5859 5859 5859 5853 5853 5852 5857 5858 5859 5860 5863 5864 5866 5868 5869 5870 5871 5870 5872 5874 5876 5877 5876 5877 5877 5877 5876 5874 5874 5871 5870 5871 5871 5870
5845 5847 5851 5852 5858 5866 5868 5856 5860 5850 5836 5850 5854 5858 5858 5858 5857 5856 5854 5851 5851 5852 5856 5858 5859 5861 5863 5865 5867 5868 5871 5871 5870 5871 5873 5875 5876 5876 5876 5877 5877 5877 5874 5873 5872 5870 5870 5871 5872
5841 5845 5848 5851 5856 5863 5858 5852 5846 5849 5848 5851 5854 5856 5856 5856 5855 5855 5854 5852 5851 5851 5853 5856 5857 5859 5861 5863 5866 5867 5870 5870 5870 5871 5873 5874 5876 5876 5875 5876 5876 5877 5875 5873 5872 5871 5870 5871 5871
5838 5842 5845 5848 5855 5857 5854 5843 5848 5845 5849 5852 5853 5854 5855 5854 5854 5853 5852 5851 5851 5851 5853 5854 5855 5858 5859 5862 5864 5867 5869 5869 5869 5870 5872 5873 5874 5875 5875 5876 5875 5876 5876 5874 5872 5872 5869 5869 5871
5835 5838 5841 5847 5852 5840 5843 5842 5848 5848 5847 5851 5853 5854 5851 5852 5853 5852 5852 5850 5850 5848 5850 5851 5854 5856 5857 5859 5861 5864 5866 5867 5868 5869 5870 5873 5873 5874 5874 5876 5876 5876 5876 5875 5872 5870 5871 5871 5870
5831 5835 5839 5847 5850 5836 5837 5842 5843 5844 5845 5849 5850 5850 5850 5850 5850 5851 5851 5852 5850 5849 5849 5850 5849 5853 5855 5857 5860 5860 5863 5865 5865 5867 5869 5872 5873 5873 5873 5875 5877 5875 5876 5875 5873 5870 5871 5871 5871
5827 5831 5836 5843 5845 5829 5826 5838 5837 5841 5843 5843 5847 5847 5847 5846 5848 5849 5849 5850 5850 5850 5849 5850 5850 5852 5855 5858 5858 5859 5860 5862 5863 5865 5867 5870 5872 5872 5872 5874 5875 5875 5876 5876 5874 5871 5870 5871 5871
5821 5824 5830 5836 5838 5833 5821 5833 5835 5837 5838 5839 5842 5841 5842 5844 5845 5846 5847 5847 5848 5848 5848 5848 5849 5852 5855 5856 5856 5857 5858 5860 5861 5863 5865 5867 5870 5870 5871 5873 5874 5874 5875 5876 5875 5873 5871 5871 5871
5817 5822 5827 5832 5831 5820 5818 5827 5830 5834 5834 5832 5834 5837 5840 5840 5842 5844 5845 5845 5846 5846 5846 5847 5848 5848 5851 5853 5854 5856 5857 5857 5858 5861 5862 5864 5867 5869 5870 5871 5872 5873 5874 5874 5875 5873 5871 5871 5870
5813 5818 5821 5817 5815 5813 5818 5820 5824 5830 5823 5826 5830 5833 5835 5837 5838 5839 5841 5842 5843 5844 5845 5846 5846 5847 5848 5850 5850 5851 5854 5855 5857 5858 5860 5861 5864 5865 5868 5869 5870 5871 5872 5873 5874 5873 5871 5871 5870
5809 5812 5805 5810 5814 5813 5813 5814 5818 5822 5817 5824 5825 5825 5831 5832 5833 5835 5836 5838 5839 5839 5841 5842 5843 5845 5846 5846 5847 5849 5851 5853 5855 5856 5857 5858 5860 5862 5864 5866 5868 5869 5870 5871 5872 5873 5870 5871 5870
5804 5804 5806 5808 5809 5809 5809 5807 5813 5814 5817 5818 5820 5821 5824 5825 5827 5830 5833 5834 5835 5835 5836 5838 5839 5841 5842 5841 5844 5847 5848 5850 5852 5853 5854 5855 5856 5859 5861 5863 5864 5866 5867 5868 5870 5871 5870 5869 5869
5798 5800 5801 5803 5804 5804 5805 5805 5809 5809 5811 5814 5815 5815 5818 5820 5822 5824 5826 5827 5826 5827 5829 5831 5834 5835 5836 5838 5840 5843 5845 5848 5850 5850 5851 5852 5853 5855 5856 5859 5861 5863 5864 5866 5867 5868 5868 5868 5868
5795 5795 5796 5797 5798 5800 5799 5801 5803 5805 5805 5808 5810 5811 5812 5814 5816 5819 5824 5824 5821 5819 5823 5824 5826 5829 5831 5832 5834 5838 5842 5844 5846 5847 5848 5848 5850 5851 5853 5854 5857 5859 5860 5862 5864 5866 5865 5866 5867
5787 5788 5789 5791 5792 5792 5793 5795 5793 5799 5800 5802 5804 5806 5806 5808 5811 5813 5816 5818 5820 5819 5821 5823 5822 5824 5826 5828 5829 5831 5835 5838 5841 5843 5844 5845 5846 5846 5849 5851 5852 5855 5857 5858 5861 5863 5863 5863 5864
5779 5780 5781 5781 5784 5784 5788 5786 5788 5790 5793 5796 5798 5799 5800 5802 5805 5808 5809 5812 5815 5815 5816 5818 5816 5816 5818 5821 5824 5824 5827 5832 5835 5838 5840 5841 5841 5842 5844 5847 5848 5852 5852 5854 5856 5858 5860 5861 5861
5771 5773 5772 5768 5777 5776 5780 5776 5777 5783 5784 5787 5789 5791 5793 5794 5797 5800 5801 5804 5807 5809 5810 5812 5812 5809 5808 5812 5817 5819 5821 5823 5829 5832 5835 5836 5838 5837 5839 5841 5844 5846 5848 5849 5851 5853 5855 5857 5857
5760 5760 5763 5763 5761 5769 5769 5768 5768 5773 5774 5776 5778 5781 5783 5785 5787 5791 5795 5796 5799 5802 5804 5806 5805 5794 5787 5803 5809 5812 5815 5817 5821 5824 5828 5831 5833 5833 5833 5834 5837 5840 5843 5844 5847 5848 5850 5852 5853
5751 5750 5752 5748 5750 5758 5756 5758 5756 5761 5763 5764 5765 5769 5772 5775 5778 5780 5784 5788 5791 5793 5796 5798 5798 5797 5798 5801 5804 5801 5805 5810 5814 5816 5818 5820 5824 5826 5828 5829 5832 5835 5837 5840 5841 5844 5846 5847 5849
5741 5740 5739 5738 5741 5744 5744 5746 5745 5748 5748 5751 5753 5755 5759 5763 5766 5769 5773 5776 5779 5783 5786 5789 5791 5792 5793 5796 5798 5801 5801 5804 5806 5808 5812 5812 5816 5821 5823 5825 5826 5828 5832 5835 5837 5838 5840 5841 5844
5727 5727 5725 5728 5726 5730 5730 5732 5732 5732 5735 5735 5738 5741 5745 5748 5752 5756 5759 5763 5766 5770 5774 5778 5783 5785 5786 5789 5790 5795 5796 5797 5800 5803 5806 5805 5807 5812 5816 5819 5821 5824 5826 5829 5831 5833 5834 5836 5837
5712 5713 5713 5713 5714 5716 5713 5718 5717 5709 5717 5717 5722 5725 5728 5732 5737 5740 5744 5749 5753 5757 5761 5766 5770 5775 5778 5780 5782 5787 5789 5790 5796 5797 5798 5796 5799 5805 5810 5813 5816 5818 5820 5823 5825 5827 5829 5830 5831
5698 5700 5700 5700 5699 5698 5703 5698 5705 5698 5695 5697 5706 5707 5710 5713 5718 5723 5727 5732 5737 5743 5747 5752 5758 5763 5768 5771 5772 5777 5780 5784 5788 5790 5793 5795 5797 5800 5803 5807 5810 5812 5815 5817 5819 5821 5822 5824 5825
5693 5692 5691 5690 5688 5686 5691 5689 5695 5684 5677 5681 5687 5690 5691 5693 5697 5703 5708 5714 5720 5726 5733 5737 5743 5749 5755 5761 5763 5767 5772 5771 5777 5781 5785 5789 5792 5796 5800 5801 5804 5806 5808 5810 5812 5812 5815 5816 5818
5688 5686 5685 5683 5681 5680 5675 5677 5673 5671 5668 5668 5669 5670 5672 5674 5677 5682 5687 5693 5700 5707 5714 5722 5728 5734 5742 5748 5752 5757 5762 5760 5759 5772 5777 5780 5784 5789 5792 5793 5795 5798 5801 5803 5804 5804 5807 5809 5809
5683 5682 5680 5677 5679 5678 5665 5665 5659 5660 5658 5655 5654 5653 5654 5657 5659 5662 5666 5672 5679 5686 5695 5703 5712 5719 5727 5734 5740 5745 5749 5751 5756 5764 5768 5771 5776 5781 5784 5785 5786 5790 5792 5794 5795 5797 5799 5799 5801
5679 5676 5674 5669 5667 5662 5662 5655 5651 5649 5647 5643 5641 5639 5638 5638 5641 5643 5647 5652 5658 5664 5672 5683 5693 5703 5711 5720 5727 5733 5737 5743 5751 5755 5758 5763 5768 5772 5775 5778 5779 5782 5783 5786 5786 5789 5791 5792 5793
5674 5671 5667 5662 5657 5654 5654 5652 5637 5638 5637 5634 5631 5629 5629 5628 5626 5626 5629 5633 5637 5643 5650 5659 5671 5683 5694 5704 5712 5720 5726 5734 5741 5747 5751 5755 5760 5762 5765 5769 5771 5772 5774 5775 5775 5778 5782 5782 5785
5672 5667 5661 5656 5651 5644 5639 5637 5631 5627 5624 5622 5620 5619 5617 5616 5614 5615 5615 5615 5617 5622 5628 5638 5649 5662 5675 5687 5697 5705 5714 5722 5729 5736 5740 5746 5752 5754 5751 5756 5756 5761 5763 5760 5763 5767 5770 5774 5776
5669 5663 5657 5651 5646 5638 5630 5626 5620 5616 5613 5610 5607 5606 5604 5603 5601 5598 5598 5598 5598 5601 5606 5615 5626 5639 5655 5670 5682 5691 5701 5710 5718 5725 5730 5735 5741 5744 5737 5748 5749 5748 5753 5754 5757 5758 5761 5763 5765